FENGYUN 1C DEB

Satellite information

Favourite Embed

Satellite Type and Status

DEBRISIN ORBIT

Key statistics

Satellite FENGYUN 1C DEB at a glance.

Uptime

9555

Days in orbit

Revolutions

≈ 14.3

Per day

Orbit

SSO

Sun Synchronous Orbit

Inclination

98.8

Latest

Satellite identification and parameters

Extended collection of information and parameters for FENGYUN 1C DEB.

Object identification

Identified? True

Debris? True

Object name: FENGYUN 1C DEB

International designator: 1999-025BCK

Object number (NORAD): 30993

Object ID (CCSDS): 30993

Country: PEOPLES REPUBLIC OF CHINA (PRC)

Current information (Y/N): Y

RCS size: SMALL

Orbital parameters

Period: 100.463 minutes

Inclination: 98.8491 deg

SMA: 7158.645 km

Apoapsis: 795.304 km

Periapsis: 765.716 km

RAAN: 276.5414 deg

Eccentricy: 0.0020666

Argument of periapsis: 120.8295 deg

Mean anomaly: 1.6709 deg

Mean motion: 14.33364178 rev/day

Mean motion (dot): 0.00003503 rev/day2

B* drag term: 0.001284 1/REarth

Two-line elements (TLE)

Creation date: July 6, 2025, 10:26 p.m.

Reference frame: TEME

Reference center: EARTH

Epoch: July 6, 2025, 7:06 p.m. UTC

TLE line 0: 0 FENGYUN 1C DEB

TLE line 1: 1 30993U 99025BCK 25187.79641431 .00003503 00000-0 12840-2 0 9995

TLE line 2: 2 30993 98.8491 276.5414 0020666 120.8295 1.6709 14.33364178946418

Live tracking on map

Real-time ground track for satellite FENGYUN 1C DEB.

In-orbit conjunctions

A list of the most updated potential collisions computed for object FENGYUN 1C DEB.

Target Orbit TCA Probability of collision Miss distance Type
CZ-6A DEB LEO 2025-02-12 19:18:03 0.000103131 384.0 (m) DEBRIS
CZ-6A DEB LEO 2025-01-14 16:15:20 0.0003489352 133.0 (m) DEBRIS

Associated space launch

Chinese polar orbiting meteorological satellite

FENGYUN 1C DEB was lifted into orbit during the mission ‘Long March 4B | Feng Yun 1C’, on board a Long March 4B space rocket.

The launch took place on May 10, 1999, 1:33 a.m. from Launch Complex 7.

For more information about the launch, click the button.

Launch to space Long March 4B | Feng Yun 1C
Long March 4B | Feng Yun 1C

Agency: N/A

Status: Launch Successful

Launch date: May 10, 1999, 1:33 a.m. UTC

Rocket: Long March 4B

Launch pad: Launch Complex 7

Location: Taiyuan Satellite Launch Center, People's Republic of China

...

Latest news about this satellite

There are no fresh news available about this satellite. Check back as we update our databases every day.


Newsletter sign-up

Weekly statistics, charts and insights to help you stay on top of the space industry.